Flag for India Weather past 2 weeks in Navi Mumbai, Maharashtra, India

Now
86 °F

Broken clouds.


Feels Like: 95 °F
Forecast: 76 / 90 °F
Wind: 3 mph from Northwest

Location: Bombay / Santacruz

Current Time: Sep 23, 2014 at 2:15:35 PM

Latest Report: Sep 23, 2014 at 11:40 AM


Visibility: 2 mi

Pressure: 29.86 "Hg

Humidity: 70%

Dew point: 75 °F

Location of Navi MumbaiLocation

Historic Weather in Navi Mumbai — Graph

°F

Navi Mumbai temperature yesterday

Maximum temperature yesterday: 86 °F (at 12:10 PM)
Minimum temperature yesterday: 77 °F (at 6:40 AM)
Average temperature yesterday: 83 °F

Past Weeks' High & Low Weather Summary

 TemperatureHumidityPressure
High88 °F (Sep 14, 2:10 PM)100% (Sep 10, 2:40 PM)30.07 "Hg (Sep 10, 2:40 PM)
Low77 °F (Sep 9, 12:40 PM)62% (Sep 14, 2:10 PM)29.68 "Hg (Sep 8, 3:40 PM)
Average82 °F84%29.78 "Hg
* Reported Sep 8 1:40 PM — Sep 23 11:40 AM, Navi Mumbai, Weather by CustomWeather, © 2014

Note: Actual official high and low records may vary slightly from our data, if they occured in-between our weather recording intervals... More about our weather records

Advertising

Navi Mumbai weather history for previous 24 hours

 ConditionsComfort  
Time TempWeatherWind HumidityBarometerVisibility
11:40 AM
Sep 23
86 °FBroken clouds.3 mph70%29.86 "Hg2 mi
10:40 AM84 °FBroken clouds.5 mph74%29.86 "Hg2 mi
10:10 AM84 °FBroken clouds.5 mph74%29.86 "Hg2 mi
9:10 AM82 °FBroken clouds.5 mph84%29.86 "Hg1 mi
8:40 AM81 °FBroken clouds.7 mph89%29.86 "Hg1 mi
8:10 AM81 °FBroken clouds.5 mph89%29.86 "Hg1 mi
7:10 AM79 °FScattered clouds.6 mph94%29.83 "Hg1 mi
6:10 AM79 °FPassing clouds.3 mph89%29.83 "Hg1 mi
5:40 AM79 °FPassing clouds.5 mph94%29.80 "Hg2 mi
4:40 AM79 °FPassing clouds.5 mph94%29.80 "Hg1 mi
4:10 AM79 °FPassing clouds.No wind94%29.80 "Hg1 mi
3:40 AM79 °FPassing clouds.No wind94%29.80 "Hg2 mi
3:10 AM81 °FPassing clouds.No wind84%29.80 "Hg2 mi
2:10 AM81 °FPassing clouds.3 mph84%29.80 "Hg2 mi
1:40 AM81 °FPassing clouds.No wind89%29.83 "Hg2 mi
1:10 AM81 °FPassing clouds.6 mph84%29.83 "Hg2 mi
12:40 AM81 °FPassing clouds.6 mph84%29.83 "Hg2 mi
12:10 AM81 °FPassing clouds.No wind89%29.83 "Hg2 mi
11:40 PM
Sep 22
81 °FPassing clouds.3 mph89%29.86 "Hg2 mi
11:10 PM81 °FPassing clouds.3 mph89%29.86 "Hg2 mi
10:10 PM82 °FPassing clouds.3 mph79%29.86 "Hg2 mi
9:40 PM82 °FPassing clouds.3 mph79%29.83 "Hg2 mi
9:10 PM84 °FPassing clouds.3 mph74%29.83 "Hg2 mi
8:40 PM84 °FPassing clouds.5 mph70%29.83 "Hg2 mi
8:10 PM84 °FPassing clouds.6 mph70%29.83 "Hg2 mi
7:10 PM84 °FPassing clouds.5 mph74%29.80 "Hg4 mi
6:40 PM84 °FPassing clouds.6 mph74%29.80 "Hg5 mi
6:10 PM84 °FPassing clouds.10 mph70%29.80 "HgN/A
5:40 PM84 °FPassing clouds.7 mph74%29.80 "HgN/A
5:10 PM86 °FScattered clouds.8 mph70%29.80 "HgN/A
4:40 PM86 °FScattered clouds.12 mph70%29.77 "Hg4 mi
4:10 PM86 °FScattered clouds.10 mph75%29.77 "Hg3 mi
2:40 PM86 °FScattered clouds.10 mph75%29.80 "Hg3 mi
2:10 PM86 °FScattered clouds.13 mph75%29.80 "Hg3 mi
Weather by CustomWeather, © 2014

See weather overviewHow to use our weather pages